SCP
0 0 0 0 0 0 0 0 0 0 0 0 0 0 0 0 0 0 0 0 0 0 0 0 0 0 0 0 0 0 0 0 0 0 0 0 0 0 0 0 0 0 0
0 0 0 0 0 0 0 0 0 0 0 0 0 0 0 0 0 0 0 0 0 0 0 0 0 0 0 0 0 0 0 0 0 0 0 0 0 0 0 0 0 0 0
0 0 0 0 0 0 0 0 0 0 0 0 0 0 0 0 0 0 0 0 0 0 0 0 0 0 0 0 0 0 0 0 0 0 0 0 0 0 0 0 0 0 0
0 0 0 0 0 0 0 0 0 0 0 0 0 0 0 0 0 0 0 0 0 0 0 0 0 0 0 0 0 0 0 0 0 0 0 0 0 0 0 0 0 0 0
0 0 0 0 0 0 0 0 0 0 0 0 0 0 0 0 0 0 0 0 0 0 0 0 0 0 0 0 0 0 0 0 0 0 0 0 0 0 0 0 0 0 0
0 0 0 0 0 0 0 0 0 0 0 0 0 0 0 0 0 0 0 0 0 0 0 0 0 0 0 0 0 -0 0 0 0 0 0 0 0 0 0 0 0 0 0
-0 0 -0 0 0 0 0 0 0 0 0 -0 -0 0 0 0 0 0 0 0 0 0 0 0 0 0 0 0 0 0 0 0 0 0 0 0 0 0 0 0 0 0 0
-0 -0 -0 -0 0 0 0 0 0 0 0 0 -0 0 0 0 0 0 0 0 0 0 0 0 0 0 0 0 0 0 0 0 0 0 0 0 0 0 0 0 0 0 0
-0 -0 -0 -0 -0 0 0 0 0 0 0 0 0 0 0 0 0 0 0 0 0 0 0 0 0 0 0 0 0 0 0 0 0 0 0 0 0 0 0 0 0 0 0
-0 -0 -0 -0 0 0 0 0 0 0 0 0 0 0 0 0 0 0 0 0 0 0 0 0 0 0 0 0 0 0 0 0 0 0 0 0 0 0 0 0 0 0 -0
-0 -0 -0 -0 0 0 0 0 0 0 0 0 0 0 0 0 0 0 0 0 0 0 0 0 0 0 0 0 0 0 0 0 0 0 0 0 0 0 0 0 0 0 0
-0 -0 -0 -0 -0 0 0 0 0 0 0 0 0 0 0 0 0 0 0 0 0 0 0 0 0 0 0 0 0 0 0 0 0 0 0 0 0 0 0 0 0 0 0
-0 -0 -0 -0 -0 0 0 0 0 0 0 0 0 0 0 0 0 0 0 0 0 0 0 0 0 0 0 0 0 0 0 0 0 0 0 0 0 0 0 0 0 0 0
-0 -0 -0 -0 -0 -0 0 0 0 0 0 0 0 0 0 0 0 0 0 0 0 0 0 0 0 0 0 0 0 0 0 0 0 0 0 0 0 0 0 0 -0 -0 -0
-0 -0 -0 -0 -0 -0 -0 -0 0 0 0 0 0 0 0 0 0 0 0 0 0 0 0 0 0 0 -0 0 -0 -0 -0 -0 -0 -0 -0 -0 0 0 0 0 -0 -0 0
-0 -0 -0 -0 -0 -0 -0 -0 -0 -0 -0 -0 0 0 0 0 0 0 0 0 0 0 0 0 -0 -0 -0 -0 -0 -0 0 0 0 0 0 0 0 -0 -0 -0 0 0 0
-0 -0 -0 -0 -0 -0 -0 -0 -0 -0 -0 -0 -0 0 -0 -0 -0 -0 -0 -0 -0 -0 -0 -0 -0 -0 -0 0 0 0 0 0 0 0 0 0 0 -0 -0 -0 0 0 0
-0 -0 -0 -0 -0 -0 0 -0 -0 -0 -0 -0 -0 -0 -0 0 0 0 0 0 0 0 0 0 0 0 0 0 -0 -0 0 0 0 0 0 -0 0 0 0 0 0 0 0
-0 -0 -0 -0 -0 -0 -0 -0 -0 -0 -0 -0 -0 -0 -0 0 0 0 0 0 0 0 0 0 0 0 0 -0 -0 -0 -0 0 0 0 -0 -0 0 0 0 0 0 0 0
-0 -0 -0 -0 -0 -0 -0 -0 -0 -0 -0 -0 -0 -0 -0 -0 -0 0 0 0 -0 -0 -0 -0 -0 -0 -0 -0 -0 -0 0 0 0 0 0 0 0 0 0 0 0 0 0
-0 0 -0 -0 -0 -0 0 0 0 -0 -0 -0 -0 -0 -0 -0 -0 -0 0 -0 0 0 -0 -0 -0 0 0 0 -0 -0 0 0 0 0 0 0 0 0 0 0 0 0 0
0 0 -0 -0 -0 -0 0 0 0 0 0 0 0 -0 -0 -0 -0 -0 -0 0 0 0 0 0 0 0 0 0 0 0 0 0 0 0 0 0 0 0 0 0 0 0 0
0 0 -0 -0 0 -0 -0 -0 0 0 0 0 0 0 0 0 0 0 0 0 0 0 0 0 0 0 0 0 -0 -0 -0 0 0 0 0 0 0 0 0 0 0 0 0
0 0 0 0 0 -0 -0 -0 0 0 0 0 0 0 0 0 0 0 0 0 0 0 0 0 0 0 0 0 0 0 0 0 0 0 0 0 0 0 0 0 0 0 0
0 0 0 0 -0 -0 -0 0 0 -0 -0 0 0 0 0 0 0 0 0 0 0 0 0 0 0 0 0 0 0 0 0 0 0 0 0 0 0 0 0 0 0 0 0
0 0 0 0 0 0 0 0 0 -0 -0 0 0 0 0 0 0 0 0 0 0 -0 -0 -0 0 0 0 0 0 0 0 0 0 0 0 0 0 0 0 0 0 0 0
Wind_Speed_500mb
16 21 11 8 15 24 20 28 33 32 29 24 26 22 21 23 23 24 25 22 20 12 40 55 55 47 52 65 70 73 70 63 67 72 63 59 62 71 64 61 52 43 44
22 22 16 7 12 18 18 24 33 32 37 30 26 26 27 29 28 27 30 28 28 35 39 34 48 60 66 59 63 63 64 63 78 82 77 67 62 58 54 55 51 43 41
30 25 22 8 10 10 24 15 20 30 32 38 37 31 28 31 33 34 36 35 33 45 49 52 49 62 50 55 67 61 81 87 82 55 46 61 40 76 58 52 50 53 42
31 30 26 11 10 9 17 20 22 30 30 27 32 38 35 38 37 39 36 39 27 35 35 40 40 45 42 45 46 58 63 67 64 38 40 40 83 50 50 42 39 38 33
36 37 27 16 15 13 10 23 25 31 29 23 22 34 44 42 42 36 37 39 41 27 30 37 38 36 37 36 40 44 48 47 48 49 36 60 60 59 56 51 38 33 24
39 35 33 20 21 17 13 16 28 24 22 23 26 27 32 35 36 40 39 41 42 37 29 31 37 35 42 40 34 47 42 27 39 37 23 51 61 53 60 49 40 34 28
46 45 43 27 27 23 19 12 12 15 19 20 19 22 24 25 30 33 38 42 41 36 40 38 36 39 42 39 37 42 41 29 36 34 23 24 39 49 43 46 45 38 30
51 52 41 31 31 28 17 16 10 10 17 19 18 16 18 16 23 29 41 49 50 48 42 45 50 47 40 38 29 35 33 31 32 34 31 33 30 39 38 45 47 40 29
59 56 38 35 31 33 19 24 17 10 17 17 15 13 6 17 22 28 34 38 41 43 43 41 43 48 46 42 49 46 46 45 41 37 39 37 35 31 29 34 32 37 38
64 55 42 42 32 30 24 32 17 13 19 18 19 19 17 18 21 24 31 37 38 36 35 36 45 45 45 44 48 48 49 51 49 45 43 47 46 38 27 23 23 20 29
72 57 50 46 38 34 26 32 27 19 20 19 19 21 23 24 23 25 33 37 38 39 42 41 44 44 46 50 54 53 50 50 47 42 41 42 35 38 33 28 25 25 18
75 61 57 50 45 42 33 40 32 25 21 17 14 14 19 24 26 28 34 37 38 41 36 38 39 37 39 40 43 45 44 43 41 38 36 33 32 36 31 25 21 22 22
74 65 64 56 51 46 43 41 32 31 30 23 16 15 15 22 30 31 32 36 36 39 35 35 38 35 36 37 35 34 34 38 37 32 31 31 23 28 25 19 15 25 29
81 75 70 62 56 48 49 42 36 36 37 31 20 17 19 24 29 34 36 35 33 37 38 33 32 31 28 29 29 29 29 30 33 33 31 30 28 26 24 21 21 24 26
85 83 79 69 62 54 52 46 38 41 41 35 26 23 25 32 32 35 36 37 36 34 37 35 30 27 21 19 21 22 23 24 27 28 26 26 26 25 23 21 21 21 21
90 89 85 77 69 62 58 53 45 43 43 36 31 30 31 37 35 35 35 37 37 34 33 31 28 26 23 22 20 18 18 20 19 19 21 21 21 19 18 20 21 22 24
92 95 94 89 77 69 63 61 54 47 43 38 37 35 35 38 38 36 37 36 36 35 33 30 26 24 25 26 26 26 25 25 25 23 21 21 21 20 18 17 19 23 25
98 99 99 95 86 73 68 65 61 56 48 43 41 39 39 37 40 38 36 35 35 33 32 30 27 27 30 30 28 28 26 26 24 23 21 19 15 14 15 18 21 25 29
100 98 99 101 93 83 73 72 72 67 59 51 46 45 43 42 41 40 38 36 35 34 32 29 28 26 24 25 25 24 22 21 18 17 16 16 15 15 15 18 22 25 28
91 97 97 101 98 92 83 79 80 81 73 62 51 47 45 44 45 43 40 37 35 32 30 27 23 19 19 19 20 21 22 22 22 22 23 23 23 23 23 24 25 28 28
92 95 93 102 111 100 94 90 89 91 82 70 58 52 51 47 47 45 42 38 35 32 29 26 26 26 26 25 26 27 29 28 29 30 30 31 33 34 34 34 33 31 34
89 93 100 102 108 105 102 101 102 93 86 80 71 62 58 56 53 53 49 45 41 37 35 35 36 37 38 38 39 41 41 40 43 44 43 44 47 48 49 48 43 42 44
102 106 106 102 106 108 110 109 107 101 95 90 82 73 66 65 61 60 59 56 53 50 47 47 47 48 49 51 53 55 56 57 61 60 58 58 59 59 60 61 58 56 56
99 108 105 102 107 109 111 109 109 106 102 99 91 83 75 74 73 70 65 61 60 61 62 61 60 57 58 61 63 66 68 70 73 73 73 73 72 74 73 70 70 68 68
79 93 99 102 106 110 109 111 115 109 107 103 99 90 83 77 83 81 79 76 66 56 59 58 58 60 59 52 51 60 68 74 77 76 81 85 86 83 80 78 74 71 71
63 82 95 103 106 107 104 112 117 113 110 106 101 96 90 87 80 84 84 85 76 65 61 56 65 63 63 60 59 59 57 54 53 63 75 80 81 84 84 84 82 78 76
Wind_Direction_500mb
138 119 132 61 38 35 48 47 44 53 46 55 62 70 81 80 80 83 87 89 89 140 152 127 139 145 161 155 148 150 155 160 159 148 142 154 159 155 151 146 148 152 146
148 134 157 88 67 40 40 54 52 63 62 59 61 69 77 82 78 78 90 99 112 128 140 134 145 135 138 149 153 154 156 160 150 147 148 139 145 155 164 171 171 174 168
155 153 165 117 104 61 33 65 54 56 67 57 60 71 77 84 80 86 87 91 108 134 124 126 129 135 127 129 152 144 142 144 144 134 148 137 144 147 159 164 172 178 179
159 162 168 149 137 115 43 55 70 78 68 52 59 69 78 81 77 79 82 105 126 154 145 153 140 146 141 135 147 147 150 152 144 133 134 154 147 142 132 157 161 166 179
167 168 181 161 149 139 81 57 97 84 63 61 74 72 84 84 85 102 94 98 111 132 142 169 154 141 145 153 157 162 156 154 159 157 142 155 155 155 148 138 158 172 179
173 174 178 162 166 137 148 93 112 95 82 75 79 85 83 89 83 81 83 87 104 106 106 114 129 127 142 142 136 147 144 131 153 142 138 180 177 172 161 148 152 158 155
173 176 173 172 183 155 158 132 115 110 105 96 94 92 89 84 86 88 85 87 97 98 99 124 131 130 137 142 139 146 150 136 158 179 159 176 174 177 180 167 158 155 149
176 178 179 182 191 177 162 170 156 123 133 121 110 104 108 103 94 99 99 100 99 99 101 113 119 117 128 134 139 138 139 128 140 159 164 163 172 179 182 178 167 151 152
179 181 185 182 192 194 185 187 170 149 157 138 140 152 129 109 109 115 113 108 107 103 109 106 107 111 118 126 132 127 121 130 127 130 125 129 134 146 166 173 172 170 154
180 184 188 185 185 176 197 191 172 144 145 147 149 150 145 127 112 109 121 117 112 114 116 115 126 131 123 130 129 130 131 128 131 127 117 117 117 117 130 153 171 177 160
183 185 188 187 186 186 194 190 170 160 141 141 142 149 151 148 142 124 125 131 125 120 125 120 131 133 134 136 130 126 131 130 131 134 134 129 127 125 127 136 161 152 151
184 186 188 189 190 192 196 181 176 172 160 148 145 150 150 157 153 141 132 139 141 130 131 135 131 139 149 147 144 142 140 136 138 141 148 149 152 149 143 142 150 167 167
185 187 189 192 195 197 191 192 187 177 172 170 173 164 163 162 167 159 149 144 143 146 142 140 138 141 144 156 162 161 157 156 152 154 152 140 155 150 154 164 165 178 182
187 189 193 196 199 200 191 194 190 183 179 180 183 170 160 161 164 167 164 159 155 153 160 154 145 149 154 158 159 161 166 171 174 176 184 185 189 199 212 219 216 210 209
190 193 195 199 199 199 194 195 190 185 184 188 185 170 159 158 160 165 168 172 173 171 171 178 176 180 186 181 179 179 180 182 187 190 194 197 205 210 218 223 224 223 234
196 197 199 201 201 200 196 197 192 188 192 196 184 173 162 160 159 161 168 174 178 181 183 187 194 195 192 189 181 178 173 168 168 169 168 174 183 189 197 208 217 222 227
199 200 202 204 203 201 197 198 197 192 193 191 183 177 168 163 163 160 163 166 167 170 173 175 173 163 157 158 157 156 158 157 156 155 154 159 165 173 181 194 210 220 228
202 205 205 207 206 203 200 198 200 197 192 191 184 180 174 169 171 168 164 161 160 160 163 164 164 160 154 153 152 149 148 148 152 154 153 151 154 165 184 203 214 222 228
213 214 212 209 206 204 199 198 202 200 196 194 190 185 180 175 174 174 170 165 162 161 161 163 163 163 164 162 163 163 162 162 164 169 174 181 185 193 210 222 226 231 234
216 214 213 211 210 206 201 198 203 202 200 197 196 193 188 186 183 178 176 173 169 165 167 169 173 181 189 191 192 198 204 206 204 208 215 223 227 232 240 246 249 250 253
220 217 213 214 215 208 203 202 203 206 205 202 200 199 197 195 193 188 187 184 183 185 188 193 203 210 215 220 224 228 232 236 240 245 249 253 253 254 251 251 254 256 255
222 217 216 218 215 211 206 205 208 207 208 205 205 205 207 203 199 199 197 199 204 209 214 219 225 229 233 235 239 243 249 253 255 259 262 263 262 262 262 259 255 254 251
225 221 220 218 216 213 211 210 213 208 208 208 208 210 213 214 213 207 206 206 213 221 229 237 241 245 247 248 248 250 252 254 256 261 261 260 260 261 261 262 260 256 253
209 217 216 215 216 216 214 219 215 211 210 210 211 212 216 218 220 218 217 218 220 225 231 238 245 251 254 255 257 257 257 258 260 263 265 263 262 263 264 260 259 261 260
214 221 219 218 221 220 218 220 217 216 212 212 212 213 218 223 223 224 226 228 233 243 246 244 248 250 255 265 273 271 270 271 273 272 270 270 267 266 265 266 266 265 263
231 222 219 222 222 224 222 219 218 219 215 213 214 214 218 222 228 230 231 237 242 248 255 260 261 266 273 278 279 281 283 281 276 269 268 270 272 272 273 273 273 271 268
Wind_Speed_850mb
16 21 11 8 15 24 20 28 33 32 29 24 26 22 21 23 23 24 25 22 20 12 40 55 55 47 52 65 70 73 70 63 67 72 63 59 62 71 64 61 52 43 44
22 22 16 7 12 18 18 24 33 32 37 30 26 26 27 29 28 27 30 28 28 35 39 34 48 60 66 59 63 63 64 63 78 82 77 67 62 58 54 55 51 43 41
30 25 22 8 10 10 24 15 20 30 32 38 37 31 28 31 33 34 36 35 33 45 49 52 49 62 50 55 67 61 81 87 82 55 46 61 40 76 58 52 50 53 42
31 30 26 11 10 9 17 20 22 30 30 27 32 38 35 38 37 39 36 39 27 35 35 40 40 45 42 45 46 58 63 67 64 38 40 40 83 50 50 42 39 38 33
36 37 27 16 15 13 10 23 25 31 29 23 22 34 44 42 42 36 37 39 41 27 30 37 38 36 37 36 40 44 48 47 48 49 36 60 60 59 56 51 38 33 24
39 35 33 20 21 17 13 16 28 24 22 23 26 27 32 35 36 40 39 41 42 37 29 31 37 35 42 40 34 47 42 27 39 37 23 51 61 53 60 49 40 34 28
46 45 43 27 27 23 19 12 12 15 19 20 19 22 24 25 30 33 38 42 41 36 40 38 36 39 42 39 37 42 41 29 36 34 23 24 39 49 43 46 45 38 30
51 52 41 31 31 28 17 16 10 10 17 19 18 16 18 16 23 29 41 49 50 48 42 45 50 47 40 38 29 35 33 31 32 34 31 33 30 39 38 45 47 40 29
59 56 38 35 31 33 19 24 17 10 17 17 15 13 6 17 22 28 34 38 41 43 43 41 43 48 46 42 49 46 46 45 41 37 39 37 35 31 29 34 32 37 38
64 55 42 42 32 30 24 32 17 13 19 18 19 19 17 18 21 24 31 37 38 36 35 36 45 45 45 44 48 48 49 51 49 45 43 47 46 38 27 23 23 20 29
72 57 50 46 38 34 26 32 27 19 20 19 19 21 23 24 23 25 33 37 38 39 42 41 44 44 46 50 54 53 50 50 47 42 41 42 35 38 33 28 25 25 18
75 61 57 50 45 42 33 40 32 25 21 17 14 14 19 24 26 28 34 37 38 41 36 38 39 37 39 40 43 45 44 43 41 38 36 33 32 36 31 25 21 22 22
74 65 64 56 51 46 43 41 32 31 30 23 16 15 15 22 30 31 32 36 36 39 35 35 38 35 36 37 35 34 34 38 37 32 31 31 23 28 25 19 15 25 29
81 75 70 62 56 48 49 42 36 36 37 31 20 17 19 24 29 34 36 35 33 37 38 33 32 31 28 29 29 29 29 30 33 33 31 30 28 26 24 21 21 24 26
85 83 79 69 62 54 52 46 38 41 41 35 26 23 25 32 32 35 36 37 36 34 37 35 30 27 21 19 21 22 23 24 27 28 26 26 26 25 23 21 21 21 21
90 89 85 77 69 62 58 53 45 43 43 36 31 30 31 37 35 35 35 37 37 34 33 31 28 26 23 22 20 18 18 20 19 19 21 21 21 19 18 20 21 22 24
92 95 94 89 77 69 63 61 54 47 43 38 37 35 35 38 38 36 37 36 36 35 33 30 26 24 25 26 26 26 25 25 25 23 21 21 21 20 18 17 19 23 25
98 99 99 95 86 73 68 65 61 56 48 43 41 39 39 37 40 38 36 35 35 33 32 30 27 27 30 30 28 28 26 26 24 23 21 19 15 14 15 18 21 25 29
100 98 99 101 93 83 73 72 72 67 59 51 46 45 43 42 41 40 38 36 35 34 32 29 28 26 24 25 25 24 22 21 18 17 16 16 15 15 15 18 22 25 28
91 97 97 101 98 92 83 79 80 81 73 62 51 47 45 44 45 43 40 37 35 32 30 27 23 19 19 19 20 21 22 22 22 22 23 23 23 23 23 24 25 28 28
92 95 93 102 111 100 94 90 89 91 82 70 58 52 51 47 47 45 42 38 35 32 29 26 26 26 26 25 26 27 29 28 29 30 30 31 33 34 34 34 33 31 34
89 93 100 102 108 105 102 101 102 93 86 80 71 62 58 56 53 53 49 45 41 37 35 35 36 37 38 38 39 41 41 40 43 44 43 44 47 48 49 48 43 42 44
102 106 106 102 106 108 110 109 107 101 95 90 82 73 66 65 61 60 59 56 53 50 47 47 47 48 49 51 53 55 56 57 61 60 58 58 59 59 60 61 58 56 56
99 108 105 102 107 109 111 109 109 106 102 99 91 83 75 74 73 70 65 61 60 61 62 61 60 57 58 61 63 66 68 70 73 73 73 73 72 74 73 70 70 68 68
79 93 99 102 106 110 109 111 115 109 107 103 99 90 83 77 83 81 79 76 66 56 59 58 58 60 59 52 51 60 68 74 77 76 81 85 86 83 80 78 74 71 71
63 82 95 103 106 107 104 112 117 113 110 106 101 96 90 87 80 84 84 85 76 65 61 56 65 63 63 60 59 59 57 54 53 63 75 80 81 84 84 84 82 78 76
Wind_Direction_850mb
138 119 132 61 38 35 48 47 44 53 46 55 62 70 81 80 80 83 87 89 89 140 152 127 139 145 161 155 148 150 155 160 159 148 142 154 159 155 151 146 148 152 146
148 134 157 88 67 40 40 54 52 63 62 59 61 69 77 82 78 78 90 99 112 128 140 134 145 135 138 149 153 154 156 160 150 147 148 139 145 155 164 171 171 174 168
155 153 165 117 104 61 33 65 54 56 67 57 60 71 77 84 80 86 87 91 108 134 124 126 129 135 127 129 152 144 142 144 144 134 148 137 144 147 159 164 172 178 179
159 162 168 149 137 115 43 55 70 78 68 52 59 69 78 81 77 79 82 105 126 154 145 153 140 146 141 135 147 147 150 152 144 133 134 154 147 142 132 157 161 166 179
167 168 181 161 149 139 81 57 97 84 63 61 74 72 84 84 85 102 94 98 111 132 142 169 154 141 145 153 157 162 156 154 159 157 142 155 155 155 148 138 158 172 179
173 174 178 162 166 137 148 93 112 95 82 75 79 85 83 89 83 81 83 87 104 106 106 114 129 127 142 142 136 147 144 131 153 142 138 180 177 172 161 148 152 158 155
173 176 173 172 183 155 158 132 115 110 105 96 94 92 89 84 86 88 85 87 97 98 99 124 131 130 137 142 139 146 150 136 158 179 159 176 174 177 180 167 158 155 149
176 178 179 182 191 177 162 170 156 123 133 121 110 104 108 103 94 99 99 100 99 99 101 113 119 117 128 134 139 138 139 128 140 159 164 163 172 179 182 178 167 151 152
179 181 185 182 192 194 185 187 170 149 157 138 140 152 129 109 109 115 113 108 107 103 109 106 107 111 118 126 132 127 121 130 127 130 125 129 134 146 166 173 172 170 154
180 184 188 185 185 176 197 191 172 144 145 147 149 150 145 127 112 109 121 117 112 114 116 115 126 131 123 130 129 130 131 128 131 127 117 117 117 117 130 153 171 177 160
183 185 188 187 186 186 194 190 170 160 141 141 142 149 151 148 142 124 125 131 125 120 125 120 131 133 134 136 130 126 131 130 131 134 134 129 127 125 127 136 161 152 151
184 186 188 189 190 192 196 181 176 172 160 148 145 150 150 157 153 141 132 139 141 130 131 135 131 139 149 147 144 142 140 136 138 141 148 149 152 149 143 142 150 167 167
185 187 189 192 195 197 191 192 187 177 172 170 173 164 163 162 167 159 149 144 143 146 142 140 138 141 144 156 162 161 157 156 152 154 152 140 155 150 154 164 165 178 182
187 189 193 196 199 200 191 194 190 183 179 180 183 170 160 161 164 167 164 159 155 153 160 154 145 149 154 158 159 161 166 171 174 176 184 185 189 199 212 219 216 210 209
190 193 195 199 199 199 194 195 190 185 184 188 185 170 159 158 160 165 168 172 173 171 171 178 176 180 186 181 179 179 180 182 187 190 194 197 205 210 218 223 224 223 234
196 197 199 201 201 200 196 197 192 188 192 196 184 173 162 160 159 161 168 174 178 181 183 187 194 195 192 189 181 178 173 168 168 169 168 174 183 189 197 208 217 222 227
199 200 202 204 203 201 197 198 197 192 193 191 183 177 168 163 163 160 163 166 167 170 173 175 173 163 157 158 157 156 158 157 156 155 154 159 165 173 181 194 210 220 228
202 205 205 207 206 203 200 198 200 197 192 191 184 180 174 169 171 168 164 161 160 160 163 164 164 160 154 153 152 149 148 148 152 154 153 151 154 165 184 203 214 222 228
213 214 212 209 206 204 199 198 202 200 196 194 190 185 180 175 174 174 170 165 162 161 161 163 163 163 164 162 163 163 162 162 164 169 174 181 185 193 210 222 226 231 234
216 214 213 211 210 206 201 198 203 202 200 197 196 193 188 186 183 178 176 173 169 165 167 169 173 181 189 191 192 198 204 206 204 208 215 223 227 232 240 246 249 250 253
220 217 213 214 215 208 203 202 203 206 205 202 200 199 197 195 193 188 187 184 183 185 188 193 203 210 215 220 224 228 232 236 240 245 249 253 253 254 251 251 254 256 255
222 217 216 218 215 211 206 205 208 207 208 205 205 205 207 203 199 199 197 199 204 209 214 219 225 229 233 235 239 243 249 253 255 259 262 263 262 262 262 259 255 254 251
225 221 220 218 216 213 211 210 213 208 208 208 208 210 213 214 213 207 206 206 213 221 229 237 241 245 247 248 248 250 252 254 256 261 261 260 260 261 261 262 260 256 253
209 217 216 215 216 216 214 219 215 211 210 210 211 212 216 218 220 218 217 218 220 225 231 238 245 251 254 255 257 257 257 258 260 263 265 263 262 263 264 260 259 261 260
214 221 219 218 221 220 218 220 217 216 212 212 212 213 218 223 223 224 226 228 233 243 246 244 248 250 255 265 273 271 270 271 273 272 270 270 267 266 265 266 266 265 263
231 222 219 222 222 224 222 219 218 219 215 213 214 214 218 222 228 230 231 237 242 248 255 260 261 266 273 278 279 281 283 281 276 269 268 270 272 272 273 273 273 271 268